Location: Sobotiste
(48.7170°N, 17.4000°E)
Time: 16:36:26
(UTC+02:00)

Tiangong - Visible Passes

Search period start: 21 May 2026 00:00
Search period end: 31 May 2026 00:00
Orbit: 381 x 391 km, 41.5° (Epoch: 20 May)

Date Brightness Start Highest point End Pass type
(mag) Time Alt. Az. Time Alt. Az. Time Alt. Az.
21 May -0.3 21:25:18 10° SSW 21:27:19 16° SSE 21:29:01 11° SE visible
21 May 0.4 23:01:00 10° SW 23:01:16 11° SW 23:01:16 11° SW visible
22 May -0.7 22:01:50 10° SW 22:04:22 21° S 22:04:59 20° SSE visible
23 May -0.4 22:38:56 10° WSW 22:40:42 19° SSW 22:40:42 19° SSW visible
24 May -0.7 21:39:37 10° SW 21:42:11 22° S 21:44:03 14° SE visible
25 May -0.4 22:16:54 10° WSW 22:19:12 18° SSW 22:19:31 18° S visible
26 May -0.5 21:17:25 10° WSW 21:19:54 21° S 21:22:23 10° SE visible
27 May 0.0 21:54:58 10° SW 21:56:49 14° SSW 21:58:02 12° S visible
29 May 0.4 21:33:40 10° SW 21:34:19 10° SSW 21:34:59 10° SSW visible
